Wind_Speed
32 32 32 34 37 37 39 42 39 42 41 36 37 34 30 27 27 23 21 30 38 45 52 57 63 71 74 75 74 79 77 75 69 69 68 67 67 63 61 60 60 56 56 58 58 60 59 53 53
28 31 33 33 35 38 40 39 42 41 43 41 39 40 38 35 38 32 30 30 31 33 37 44 49 56 62 71 78 79 82 82 80 75 74 73 71 69 66 62 64 60 60 62 60 59 62 61 58
31 29 32 33 33 35 39 39 39 44 42 42 41 43 41 40 43 37 34 36 34 35 38 39 44 48 50 57 65 72 84 84 87 85 79 80 78 75 72 69 66 64 63 64 66 63 63 59 55
32 37 36 35 33 34 38 41 41 43 42 43 44 44 41 41 43 41 38 39 40 39 36 37 40 40 45 52 55 59 67 80 89 91 88 85 85 83 75 74 72 69 66 68 68 64 64 63 62
33 38 39 40 36 32 37 38 41 43 45 45 44 43 42 45 46 44 43 43 45 44 45 42 37 39 44 48 52 59 63 69 80 90 97 95 88 89 87 79 77 73 72 73 75 69 66 67 63
33 33 36 38 37 37 36 39 42 40 45 46 45 46 45 46 46 45 45 44 45 47 47 46 44 46 48 48 50 56 65 70 71 81 86 97 99 95 93 89 83 78 77 78 78 75 72 71 67
35 35 37 36 38 39 47 36 39 42 45 44 44 45 47 47 47 48 46 45 49 50 49 49 49 51 52 52 56 61 62 69 73 76 80 87 95 96 96 90 86 83 84 81 80 79 76 76 74
31 31 33 35 36 37 44 38 39 44 44 44 47 47 47 49 49 48 46 47 52 52 52 52 55 56 57 60 64 62 60 66 71 75 75 79 90 91 103 93 90 87 87 86 87 83 81 78 80
27 29 33 34 36 39 39 39 43 39 40 50 49 47 49 49 51 52 49 49 54 57 58 59 60 61 64 66 61 56 59 62 69 71 74 75 79 89 89 93 86 89 90 90 89 86 88 83 83
29 29 30 32 36 37 37 37 37 38 45 47 46 46 50 50 51 53 51 53 57 59 60 61 64 65 66 63 57 56 54 56 61 66 69 75 78 79 83 88 74 85 86 85 82 78 90 86 88
30 30 31 33 37 41 41 35 36 41 43 44 46 46 48 49 51 51 50 54 58 61 61 64 69 70 63 60 55 50 49 52 57 62 67 68 75 78 84 77 74 79 80 84 82 85 80 80 84
34 35 33 31 33 37 35 36 38 38 43 44 44 47 48 51 49 52 51 56 61 62 64 69 72 70 63 59 52 45 43 47 52 58 66 67 70 77 76 80 78 75 76 76 79 78 69 72 69
34 31 32 31 32 32 34 37 42 45 44 43 43 46 47 50 51 51 52 57 60 62 66 71 73 71 65 57 51 42 37 38 44 55 63 68 72 74 78 76 80 81 79 78 79 78 75 68 66
35 29 29 34 32 32 36 39 40 47 46 45 45 46 47 50 51 51 52 57 59 61 67 73 75 68 65 59 50 41 37 32 38 46 56 65 67 72 74 73 80 83 81 81 75 75 74 70 65
31 30 31 32 35 36 41 40 47 50 44 45 44 45 46 49 50 50 53 57 58 64 69 73 75 69 65 56 46 39 36 34 32 38 44 59 64 68 73 74 82 82 85 81 79 80 71 62 63
35 31 32 37 41 42 44 47 53 55 47 45 46 44 44 46 48 50 53 57 57 64 70 76 76 75 69 55 45 37 33 34 29 31 38 48 56 64 68 71 75 76 80 81 82 81 80 72 66
35 34 37 41 46 48 48 50 54 59 51 45 43 43 43 44 46 49 53 56 57 64 72 75 77 75 72 57 47 35 31 30 29 29 32 40 49 57 63 71 76 77 79 85 78 84 79 80 76
42 40 41 44 50 51 51 53 53 59 53 45 45 47 41 43 44 48 53 57 58 63 71 75 78 74 66 58 46 34 31 27 26 26 29 31 44 51 61 72 73 77 85 79 77 86 79 83 79
44 43 44 49 52 52 53 55 57 57 53 46 45 46 44 41 44 49 53 56 58 63 70 75 75 71 64 57 43 34 29 26 24 24 29 30 37 50 63 68 70 76 82 79 85 86 83 83 76
44 45 49 53 52 53 53 57 56 56 53 44 44 42 43 40 44 50 54 55 58 62 68 74 75 72 65 55 43 34 28 24 21 21 28 31 35 52 63 65 69 89 93 89 82 87 83 82 77
45 46 51 55 53 53 53 57 55 54 55 45 43 43 38 37 44 47 51 54 55 61 66 72 75 70 63 53 39 33 27 23 16 19 24 31 37 53 65 71 82 95 94 87 90 86 84 76 76
45 46 53 55 54 55 56 55 56 52 55 47 44 45 38 36 42 45 49 52 54 60 65 70 70 67 63 54 37 32 28 23 14 10 16 23 32 52 71 75 90 93 90 91 87 88 84 80 79
48 48 52 54 55 57 55 54 55 53 54 47 43 43 39 37 41 42 46 49 51 56 62 66 68 67 63 54 43 37 35 24 15 12 4 13 25 47 66 83 77 94 92 90 89 83 75 71 75
48 49 52 55 57 56 53 54 55 52 52 51 41 41 38 36 39 39 43 48 49 53 60 64 66 67 63 54 44 39 39 26 19 15 11 5 19 40 59 71 71 86 83 81 82 69 71 70 72
51 50 52 56 58 56 53 54 53 54 52 51 40 39 36 35 37 38 41 46 47 49 57 61 62 64 61 55 44 40 38 34 20 20 16 11 18 35 56 66 71 86 77 70 72 69 65 66 67
51 51 53 57 55 57 58 56 52 53 51 49 38 36 34 34 33 35 39 42 46 47 54 58 58 61 60 51 48 38 37 37 22 28 19 16 17 30 50 61 70 90 74 70 63 61 65 64 65
52 53 57 59 56 55 60 57 55 50 47 45 37 33 31 32 31 32 36 38 42 44 48 53 54 56 62 56 50 38 35 33 29 27 24 18 19 31 47 58 71 82 68 51 53 57 59 63 65
54 57 59 59 56 56 60 58 56 48 41 43 37 29 30 29 30 31 31 33 38 42 42 49 51 52 58 55 47 43 33 31 27 24 22 18 23 34 45 58 81 81 73 59 53 48 50 54 53
57 58 60 59 59 62 57 62 51 46 39 42 37 26 28 28 29 30 28 29 33 38 40 43 48 48 52 57 48 43 37 31 22 19 16 16 22 32 43 51 74 70 58 51 44 47 53 57 54
59 61 61 61 61 60 57 56 45 40 35 40 37 26 26 26 27 29 26 25 29 34 37 38 43 46 45 53 50 41 38 37 25 11 12 13 21 32 45 54 72 64 63 55 52 48 45 43 46
Wind_Direction
330 333 333 327 328 327 330 331 333 335 338 338 338 338 331 334 333 325 304 282 272 266 265 264 263 260 257 258 257 253 254 256 254 253 251 251 252 250 250 247 246 250 249 248 248 246 245 247 251
317 321 323 323 323 323 322 325 327 332 332 335 332 333 333 330 329 327 321 309 296 286 278 271 264 262 262 260 257 254 253 254 252 252 248 248 247 248 250 251 247 249 249 248 246 246 248 247 249
310 311 314 317 313 319 316 317 323 324 328 328 329 327 327 327 326 324 316 313 306 296 289 287 279 272 270 264 257 258 254 253 250 249 250 246 244 245 246 248 249 247 247 249 245 244 244 248 254
306 306 306 303 306 314 312 307 312 318 322 322 322 323 320 320 320 320 316 313 312 308 298 291 279 279 278 273 268 263 257 254 250 248 246 248 245 242 241 243 246 246 247 248 246 243 244 248 251
310 309 311 301 302 306 314 305 309 314 316 320 318 320 316 315 319 319 315 314 311 311 309 309 298 289 288 279 270 265 261 255 250 248 246 243 245 245 242 241 242 244 246 246 246 248 244 245 248
310 312 308 306 303 295 303 306 306 311 310 316 316 318 316 315 317 316 314 311 311 313 315 314 309 302 296 285 278 270 259 255 253 246 244 244 241 243 243 242 242 240 243 246 248 248 248 245 246
316 310 311 305 301 297 300 300 302 306 310 311 314 312 313 316 317 315 315 314 312 318 318 316 311 307 300 291 290 283 269 256 253 250 244 240 240 238 240 241 242 240 241 243 246 249 248 246 248
315 321 321 311 308 301 299 301 297 310 310 311 317 313 313 315 315 314 318 315 314 318 321 319 314 311 308 299 293 284 270 259 252 248 244 239 237 235 238 237 241 242 239 241 242 246 250 250 250
321 331 315 315 309 304 306 307 303 307 305 312 311 311 313 314 315 317 319 316 316 322 323 319 320 316 312 305 294 284 276 261 253 248 241 237 233 232 238 234 235 239 240 240 242 246 247 248 249
325 335 330 320 308 308 310 309 313 308 309 310 309 309 310 313 316 318 321 315 318 323 322 323 322 320 314 306 301 288 275 261 253 247 238 237 233 230 229 230 231 235 237 240 242 241 246 248 249
331 340 335 323 314 312 311 315 312 309 307 311 310 305 310 314 318 318 320 314 321 323 323 325 324 323 315 308 306 291 276 260 250 243 236 234 231 227 223 221 223 229 233 236 235 241 245 247 250
328 332 344 330 323 320 324 321 313 312 312 311 310 308 311 315 318 320 318 315 322 326 326 326 327 324 319 313 310 296 273 259 250 238 234 233 228 223 217 217 218 224 226 229 233 234 231 237 245
326 342 344 346 339 335 326 320 316 313 311 310 310 310 313 317 318 320 316 316 323 328 327 330 329 328 326 319 316 303 287 266 254 243 233 229 226 224 217 214 216 220 221 221 226 228 228 232 238
322 337 343 346 347 338 334 329 322 325 311 306 310 311 314 319 317 320 316 318 328 328 328 333 331 330 332 326 319 308 294 270 252 247 237 228 228 223 218 213 213 215 219 219 222 223 228 230 230
321 334 338 338 339 337 337 336 334 333 318 305 307 310 316 318 318 320 318 322 332 330 331 335 335 334 335 329 320 307 291 281 259 245 236 229 226 222 217 212 214 212 215 218 216 217 218 222 230
317 326 326 333 333 332 336 338 338 339 331 311 310 314 319 322 321 319 319 325 335 333 334 339 337 334 335 332 326 313 294 285 270 255 238 228 225 218 213 209 208 212 215 217 213 219 221 221 224
317 321 326 328 331 330 335 341 340 343 332 320 318 319 321 324 322 319 320 329 336 336 337 341 337 334 334 335 328 317 301 288 276 261 243 231 224 217 208 206 209 210 208 215 214 219 222 228 229
315 321 323 327 328 330 333 336 342 342 335 325 321 322 324 326 322 320 325 330 338 340 339 342 339 336 337 337 333 321 310 294 278 260 249 232 220 213 202 204 208 207 210 211 208 218 225 224 229
314 319 321 323 324 329 334 335 340 341 337 329 325 325 325 328 323 323 328 332 339 340 342 343 341 338 342 340 337 330 313 299 283 260 245 236 221 207 201 203 203 203 206 207 207 218 220 220 226
310 314 316 319 325 331 334 334 338 339 337 327 331 331 328 329 325 325 328 334 340 340 345 343 344 341 345 343 342 337 324 313 294 262 240 233 217 205 200 197 197 196 202 206 209 215 218 221 228
308 310 312 318 324 330 333 331 336 336 337 326 331 336 326 328 329 329 329 333 341 342 346 345 345 344 348 348 348 345 337 330 307 270 243 236 213 201 197 196 194 200 204 206 206 212 218 225 228
305 309 313 318 324 328 330 328 332 332 335 329 327 333 325 327 330 330 329 333 341 343 350 347 348 350 350 351 357 3 360 0 357 306 252 235 209 199 196 196 195 194 202 203 207 211 215 220 226
302 307 312 317 321 324 327 327 328 329 330 330 326 331 327 326 329 331 331 333 341 345 350 350 352 351 353 356 1 8 4 5 22 35 0 231 206 200 196 199 200 198 205 206 209 213 218 217 228
298 304 309 314 318 320 322 323 322 325 325 329 326 328 329 327 329 330 334 334 340 346 351 355 353 354 356 358 360 6 9 13 38 50 64 158 195 195 201 200 195 197 204 205 213 214 214 218 226
294 300 306 313 316 315 317 319 318 321 323 325 321 327 333 325 326 331 337 333 339 346 349 358 356 356 358 1 3 5 10 15 45 59 71 115 174 189 198 198 193 191 203 206 213 217 217 219 226
292 297 303 310 312 311 313 315 316 317 319 322 318 324 329 330 326 332 339 334 337 347 347 359 359 0 4 5 9 8 9 19 46 54 73 111 153 180 189 194 192 192 200 207 210 215 214 223 224
288 295 302 306 310 310 310 312 315 314 316 320 316 324 326 331 328 330 341 335 336 346 348 355 3 4 5 7 14 16 12 16 29 54 61 104 140 165 178 185 189 190 197 197 204 211 219 223 232
285 293 301 303 307 310 308 308 313 307 313 317 315 325 321 330 326 326 338 336 336 340 347 352 3 5 8 11 14 24 20 15 23 44 57 100 133 150 169 183 189 193 201 207 211 213 218 222 233
283 292 300 304 304 309 308 307 305 301 308 311 317 322 316 330 326 325 332 337 334 338 345 351 358 7 10 14 14 23 29 26 18 36 57 100 135 155 165 180 187 192 194 199 209 218 227 229 235
285 293 298 302 305 308 309 301 299 298 307 307 319 314 309 322 325 324 327 338 331 334 342 349 355 3 14 18 18 19 30 35 36 44 95 126 148 162 168 174 174 195 201 212 226 216 222 223 237
Height
10817 10815 10812 10809 10805 10802 10799 10797 10794 10791 10790 10788 10785 10783 10781 10779 10777 10775 10772 10771 10770 10769 10768 10767 10766 10768 10770 10771 10772 10774 10776 10778 10782 10784 10785 10788 10792 10794 10797 10802 10805 10809 10812 10815 10816 10819 10820 10822 10823
10814 10812 10809 10805 10801 10797 10795 10792 10789 10786 10784 10781 10779 10777 10775 10773 10770 10767 10764 10762 10761 10759 10757 10755 10753 10753 10753 10754 10756 10756 10758 10761 10765 10766 10770 10773 10776 10780 10785 10789 10793 10797 10800 10802 10805 10806 10811 10813 10815
10809 10806 10804 10801 10797 10794 10790 10788 10784 10781 10778 10776 10772 10769 10766 10765 10762 10759 10757 10755 10752 10750 10746 10744 10741 10740 10739 10739 10739 10737 10739 10741 10744 10748 10751 10754 10760 10764 10769 10774 10780 10784 10787 10788 10791 10796 10799 10802 10805
10803 10800 10798 10796 10792 10788 10785 10783 10779 10777 10774 10770 10766 10763 10759 10757 10755 10752 10749 10745 10741 10738 10735 10732 10728 10726 10724 10723 10720 10719 10718 10718 10721 10724 10730 10733 10742 10748 10753 10759 10765 10770 10774 10775 10776 10784 10788 10791 10795
10799 10795 10792 10789 10787 10783 10780 10778 10774 10772 10768 10765 10761 10758 10754 10749 10746 10742 10738 10735 10730 10726 10721 10717 10714 10712 10708 10704 10702 10699 10696 10695 10696 10700 10706 10713 10719 10728 10737 10746 10751 10757 10762 10761 10761 10771 10777 10779 10783
10796 10792 10788 10784 10781 10777 10774 10773 10770 10767 10763 10760 10755 10750 10748 10743 10739 10735 10731 10726 10721 10715 10709 10703 10700 10696 10691 10685 10680 10677 10673 10672 10672 10674 10679 10685 10696 10707 10717 10727 10735 10743 10746 10747 10750 10757 10764 10767 10770
10791 10788 10784 10780 10776 10772 10769 10767 10764 10760 10757 10753 10749 10744 10741 10736 10730 10726 10721 10716 10709 10703 10697 10691 10685 10679 10672 10666 10659 10652 10647 10645 10647 10650 10653 10659 10671 10686 10693 10704 10714 10727 10731 10733 10736 10741 10748 10755 10758
10786 10783 10779 10776 10771 10768 10764 10761 10757 10754 10749 10745 10740 10736 10731 10726 10721 10717 10711 10704 10697 10691 10684 10677 10669 10661 10652 10644 10635 10626 10620 10619 10622 10626 10631 10639 10647 10662 10660 10691 10698 10705 10712 10714 10722 10727 10732 10741 10745
10781 10777 10772 10769 10766 10763 10759 10755 10752 10748 10744 10739 10734 10728 10723 10717 10711 10705 10699 10693 10686 10678 10670 10661 10652 10643 10634 10621 10609 10602 10598 10597 10598 10604 10608 10616 10625 10641 10647 10670 10677 10682 10692 10698 10708 10714 10713 10726 10730
10776 10772 10767 10763 10759 10756 10752 10750 10746 10743 10738 10732 10727 10722 10715 10709 10702 10694 10687 10681 10674 10666 10658 10648 10638 10627 10613 10599 10589 10581 10575 10575 10577 10582 10588 10595 10604 10615 10630 10644 10661 10664 10675 10687 10695 10689 10701 10709 10713
10771 10767 10763 10758 10754 10750 10747 10743 10740 10736 10731 10726 10720 10713 10707 10700 10693 10685 10679 10671 10663 10654 10644 10633 10622 10607 10592 10580 10570 10560 10555 10554 10555 10561 10566 10573 10580 10591 10606 10627 10640 10648 10658 10670 10678 10680 10688 10691 10698
10766 10762 10757 10752 10748 10744 10740 10738 10733 10728 10723 10718 10711 10704 10698 10691 10684 10676 10669 10660 10652 10642 10630 10617 10605 10589 10576 10563 10552 10542 10537 10533 10534 10538 10545 10553 10559 10569 10585 10605 10622 10634 10645 10652 10660 10668 10674 10680 10684
10761 10757 10752 10747 10744 10739 10736 10732 10726 10721 10715 10709 10702 10695 10689 10682 10674 10667 10659 10652 10643 10631 10619 10606 10590 10574 10560 10546 10534 10526 10521 10519 10517 10520 10528 10533 10542 10554 10569 10584 10599 10614 10630 10641 10646 10656 10663 10668 10672
10756 10752 10747 10742 10738 10735 10731 10726 10719 10713 10706 10699 10692 10686 10680 10673 10664 10658 10651 10644 10634 10622 10608 10594 10576 10558 10544 10530 10520 10512 10507 10504 10504 10504 10510 10516 10527 10538 10554 10569 10582 10598 10613 10623 10634 10644 10651 10657 10663
10752 10748 10743 10739 10735 10730 10725 10720 10713 10705 10696 10689 10683 10678 10672 10664 10656 10649 10641 10634 10625 10612 10597 10581 10563 10545 10533 10519 10509 10499 10492 10490 10489 10490 10495 10502 10509 10523 10539 10553 10568 10584 10595 10610 10622 10630 10640 10647 10652
10746 10743 10739 10734 10730 10725 10719 10713 10704 10698 10689 10682 10675 10670 10664 10657 10650 10641 10633 10626 10617 10603 10586 10570 10550 10533 10520 10509 10497 10488 10482 10478 10477 10477 10482 10487 10495 10508 10525 10540 10557 10574 10587 10599 10611 10622 10631 10634 10641
10740 10737 10735 10730 10725 10719 10712 10707 10697 10690 10682 10676 10669 10663 10656 10651 10643 10633 10626 10618 10608 10593 10576 10561 10541 10523 10510 10497 10486 10476 10469 10466 10465 10466 10469 10475 10483 10495 10511 10527 10543 10561 10575 10585 10600 10612 10622 10626 10635
10735 10732 10728 10724 10718 10713 10706 10699 10694 10684 10675 10668 10662 10656 10648 10642 10636 10627 10619 10609 10600 10586 10569 10553 10535 10516 10502 10488 10476 10466 10459 10455 10455 10455 10458 10464 10472 10483 10498 10510 10529 10548 10562 10574 10590 10601 10611 10621 10623
10728 10725 10721 10718 10713 10705 10700 10693 10685 10678 10669 10662 10655 10649 10642 10636 10628 10619 10612 10603 10593 10580 10565 10546 10529 10512 10495 10480 10467 10457 10451 10447 10446 10447 10448 10454 10462 10473 10486 10501 10518 10537 10548 10564 10581 10590 10600 10612 10619
10722 10718 10715 10712 10706 10699 10693 10685 10680 10672 10664 10657 10650 10643 10636 10629 10622 10614 10606 10598 10588 10576 10560 10543 10524 10506 10489 10473 10461 10450 10444 10439 10437 10437 10439 10444 10452 10463 10473 10491 10507 10524 10537 10552 10568 10580 10594 10604 10613
10715 10711 10709 10704 10698 10693 10687 10677 10673 10666 10659 10651 10644 10637 10630 10624 10617 10609 10601 10593 10586 10573 10557 10539 10521 10502 10486 10470 10458 10447 10438 10433 10430 10428 10430 10433 10442 10452 10464 10482 10497 10509 10525 10540 10556 10573 10586 10597 10605
10707 10704 10700 10696 10690 10686 10680 10673 10667 10660 10654 10645 10639 10633 10626 10620 10612 10605 10597 10589 10581 10569 10555 10538 10520 10500 10484 10469 10456 10444 10436 10430 10426 10422 10422 10424 10433 10444 10456 10469 10485 10505 10520 10535 10550 10566 10578 10588 10597
10699 10697 10693 10688 10683 10678 10673 10667 10662 10655 10648 10641 10634 10628 10621 10616 10608 10602 10594 10587 10578 10567 10555 10538 10521 10502 10485 10470 10456 10445 10437 10429 10422 10420 10419 10421 10428 10439 10452 10465 10481 10501 10514 10534 10548 10562 10574 10585 10595
10692 10689 10686 10681 10676 10671 10666 10661 10655 10649 10643 10636 10630 10624 10617 10612 10605 10599 10591 10584 10576 10566 10553 10538 10522 10504 10487 10473 10457 10447 10439 10431 10423 10419 10417 10420 10427 10438 10448 10465 10486 10501 10514 10532 10544 10560 10573 10583 10592
10684 10682 10680 10674 10667 10662 10659 10655 10649 10643 10636 10631 10626 10620 10613 10608 10602 10595 10589 10581 10573 10565 10553 10541 10525 10507 10491 10474 10461 10450 10441 10434 10426 10420 10419 10421 10427 10438 10448 10464 10487 10503 10516 10534 10546 10557 10569 10579 10587
10675 10673 10671 10669 10661 10653 10649 10648 10643 10637 10630 10624 10621 10616 10609 10603 10598 10592 10586 10579 10570 10563 10553 10544 10529 10513 10496 10481 10467 10456 10446 10439 10434 10426 10423 10425 10431 10439 10451 10468 10487 10506 10521 10534 10545 10556 10566 10575 10582
10667 10665 10662 10659 10655 10648 10640 10638 10637 10632 10624 10618 10615 10611 10605 10600 10595 10589 10584 10577 10569 10563 10555 10545 10534 10518 10502 10487 10475 10464 10454 10447 10441 10436 10433 10434 10438 10445 10456 10475 10492 10511 10524 10534 10546 10556 10564 10571 10576
10657 10655 10653 10649 10647 10642 10632 10628 10629 10626 10619 10612 10610 10606 10600 10597 10592 10587 10582 10576 10569 10562 10556 10546 10538 10526 10511 10497 10483 10474 10464 10457 10451 10446 10444 10445 10450 10454 10466 10483 10503 10516 10528 10537 10547 10553 10561 10566 10572
10647 10646 10643 10640 10635 10633 10627 10617 10620 10618 10613 10605 10604 10602 10595 10592 10588 10584 10580 10574 10569 10562 10556 10549 10540 10531 10518 10506 10494 10484 10475 10467 10462 10458 10457 10459 10464 10469 10481 10495 10507 10522 10532 10539 10547 10554 10559 10565 10570
10636 10635 10633 10630 10626 10620 10618 10608 10612 10610 10606 10597 10598 10597 10591 10588 10584 10580 10577 10572 10568 10562 10556 10551 10544 10535 10529 10515 10505 10495 10486 10479 10473 10469 10469 10472 10476 10483 10490 10501 10517 10528 10533 10541 10548 10552 10554 10560 10565